Regional Weather Roundup
Issued by NWS

Home | Current Version | Previous Version | Text Only | Print | Product List | Glossary Off
Versions: 1 2 3 4 5 6 7 8 9 10 11 12 13 14 15 16 17 18 19 20 21 22 23 24 25 26 27 28 29 30 31 32 33 34 35 36 37 38 39 40 41 42 43 44 45 46 47 48 49 50

000
ASUS43 KDTX 061701
RWRMI
MICHIGAN HOURLY REGIONAL WEATHER ROUNDUP
NATIONAL WEATHER SERVICE DETROIT/PONTIAC MI
100 PM EDT MON JUL 06 2015

NOTE: "FAIR" INDICATES FEW OR NO CLOUDS BELOW 12,000 FEET WITH NO
SIGNIFICANT WEATHER AND/OR OBSTRUCTION TO VISIBILITY.

MIZ047>049-052>055-059>063-066>070-074>076-081>083-061800-
SOUTHEAST LOWER MICHIGAN

CITY           SKY/WX    TMP DP  RH WIND       PRES   REMARKS
ADRIAN         SUNNY     79  62  56 SW8       30.05F
ALMA           MOSUNNY   82  66  58 S10       30.02S
ANN ARBOR      SUNNY     80  63  55 S9        30.03F
BAD AXE        MOSUNNY   80  58  46 S5        30.01F
CARO           SUNNY     82  63  53 S7        30.00F
DETROIT CITY   SUNNY     81  62  52 S10       30.03F
DETROIT        MOSUNNY   81  62  52 SE9       30.04F
FLINT          SUNNY     85  62  46 S10       30.02F
GROSSE ILE     SUNNY     75  66  73 SE7       30.04F
HILLSDALE      SUNNY     80  62  54 W6        30.06S
HOWELL         SUNNY     81  60  48 S9        30.03F

CITY           SKY/WX    TMP DP  RH WIND       PRES   REMARKS
JACKSON        SUNNY     80  64  58 SW8       30.05S
LAMBERTVILLE   SUNNY     81  61  50 SW6       30.05S
LANSING        MOSUNNY   81  64  56 SW13      30.03S
LAPEER         FAIR      82  57  43 S3        30.02F
MASON          MOSUNNY   78  63  59 SW7       30.04R
MONROE         SUNNY     80  63  55 SW6       30.04F
MT. CLEMENS    MOSUNNY   78  65  62 SE9       30.02F
PONTIAC        PTSUNNY   80  57  45 S7        30.02F
PORT HOPE        N/A     69  64  84 E13       29.99F
PORT HURON     SUNNY     79  63  57 S7        30.03F
TRI CITIES     MOSUNNY   82  63  52 S10       30.01S
MIDLAND        PTSUNNY   82  63  52 SW12      29.99F
TROY           SUNNY     82  54  37 S3        30.05F
SAGINAW HB     MOSUNNY   81  61  50 S9        30.01S
$$
MIZ043>046-050>051-056>058-064>065-071>073-077>080-061800-
SOUTHWEST LOWER MICHIGAN

CITY           SKY/WX    TMP DP  RH WIND       PRES   REMARKS
BATTLE CREEK   PTSUNNY   80  66  62 SW13G20   30.05R
BENTON HARBOR  MOSUNNY   83  64  52 S15       30.00F
BIG RAPIDS     PTSUNNY   79  62  56 SW6G17    29.99F
COLDWATER      PTSUNNY   78  65  65 W8        30.05S
FREMONT        FAIR      81  64  56 SW15G21   29.99F
HOLLAND        MOSUNNY   83  65  54 SW14      30.01F
GRAND RAPIDS   PTSUNNY   81  65  58 SW14      30.01F
IONIA          FAIR      82  64  55 SW10G16   30.02S
KALAMAZOO      MOSUNNY   82  66  58 S14       30.03S
LUDINGTON      PTSUNNY   81  67  62 S17       29.95F
MARSHALL       PTSUNNY   81  66  61 SW7       30.04S
MOUNT PLEASANT MOSUNNY   80  63  55 S9G17     30.00F
MUSKEGON       PTSUNNY   80  65  59 S15       29.99F
SOUTH HAVEN    MOSUNNY   81  63  53 SW10      30.00F
$$
MIZ016>042-061800-
NORTHERN LOWER MICHIGAN

CITY           SKY/WX    TMP DP  RH WIND       PRES   REMARKS
ALPENA         PTSUNNY   84  61  45 S17G23    29.95F
BEAVER ISLAND  CLOUDY    78  64  61 S13G21    29.91F
BELLAIRE       PTSUNNY   82  63  52 S5        29.93F
CADILLAC       MOSUNNY   79  64  59 S14       29.98F
CHARLEVOIX     PTSUNNY   80  64  58 S13G18    29.95F
FRANKFORT      PTSUNNY   80  61  52 S7        29.92F
GAYLORD        MOSUNNY   80  62  54 S16       29.97F
GRAYLING       MOSUNNY   80  63  56 S10G17    29.99S
HARBOR SPRINGS PTSUNNY   78  64  62 SW9G16    29.92F
HOUGHTON LAKE  MOSUNNY   78  63  59 SW10      30.00F
MANISTEE       PTSUNNY   79  64  61 S10G16    29.94F
OSCODA         PTSUNNY   82  63  53 S10       29.98F
PELLSTON       PTSUNNY   79  64  60 SW9       29.93F
ROGERS CITY    PTSUNNY   81  64  57 S12       29.95F
TRAVERSE CITY  CLOUDY    82  64  54 S8G21     29.91F
$$
MIZ007>008-015-061800-
EASTERN UPPER MICHIGAN

CITY           SKY/WX    TMP DP  RH WIND       PRES   REMARKS
KINROSS        CLOUDY    75  64  69 S9G16     29.92F
MACKINAC ISLAN CLOUDY    76  64  65 SW3       29.92F
NEWBERRY       CLOUDY    73  65  76 S15G23    29.90F
S. S. MARIE    CLOUDY    78  64  61 S13       29.90F
$$
MIZ004>006-011>014-085-061800-
CENTRAL UPPER MICHIGAN

CITY           SKY/WX    TMP DP  RH WIND       PRES   REMARKS
MANISTIQUE     CLOUDY    64  58  82 S8        29.90S HAZE
ESCANABA         N/A    N/A N/A N/A MISG        N/A
MENOMINEE      CLOUDY    75  64  69 SW9       29.86F
SAWYER-GWINN   LGT RAIN  70  64  83 S6        29.86F
$$
MIZ001>003-009>011-084-061800-
WESTERN UPPER MICHIGAN

CITY           SKY/WX    TMP DP  RH WIND       PRES   REMARKS
IRON MOUNTAIN  LGT RAIN  68  66  93 S6        29.86S FOG
HOUGHTON       RAIN      61  59  93 NE8       29.84F FOG
COPPER HARBOR    N/A     57  55  93 CALM      29.85S
IRONWOOD       CLOUDY    61  61 100 N5        29.81S
$$

ABBREVIATIONS USED IN REMARKS
   TC - TEMPERATURE IN CELSIUS
  WCI - WIND CHILL INDEX
   HX - HEAT INDEX
  VSB - VISIBILITY



USA.gov is the U.S. government's official web portal to all federal, state and local government web resources and services.